TAP1455 ULLI-UUDD

Flight info

Callsign TAP1455
Flight time N/A
Altitude 35000
Route SUGIN1B SUGIN T873 NIRGI T73 DESUD P164 IBOGI/K0826F290 T287 ESOLO ESOLO3N
Aircraft A21N/M-SDE3FGHIRWY/LB1

Departure

Time 2026-04-30 11:18
Airport Pulkovo Airport (ULLI)

Arrival

Time N/A
Airport Domodedovo International Airport (UUDD)
Time Latitude Longitude Altitude Speed Heading
2026-04-30 11:12 59.80355 30.27154 86 ft 15 kts 107°
2026-04-30 11:12 59.80322 30.27376 86 ft 17 kts 106°
2026-04-30 11:12 59.80284 30.27622 86 ft 19 kts 106°
2026-04-30 11:12 59.80244 30.27893 86 ft 21 kts 106°
2026-04-30 11:13 59.80201 30.28188 86 ft 22 kts 106°
2026-04-30 11:13 59.80154 30.28494 86 ft 24 kts 106°
2026-04-30 11:13 59.80109 30.28824 86 ft 25 kts 106°
2026-04-30 11:13 59.80056 30.29155 86 ft 25 kts 107°
2026-04-30 11:14 59.80006 30.29504 86 ft 26 kts 105°
2026-04-30 11:14 59.79954 30.29851 86 ft 25 kts 105°
2026-04-30 11:14 59.79964 30.30074 86 ft 15 kts 53°
2026-04-30 11:14 59.79995 30.30146 86 ft 0 kts 47°
2026-04-30 11:16 59.80014 30.30187 86 ft 11 kts 46°
2026-04-30 11:17 59.80112 30.30266 86 ft 14 kts 316°
2026-04-30 11:17 59.80118 30.30239 86 ft 2 kts 285°
2026-04-30 11:17 59.80130 30.30156 86 ft 26 kts 287°
2026-04-30 11:17 59.80275 30.29253 86 ft 107 kts 286°
2026-04-30 11:18 59.80551 30.27382 87 ft 171 kts 288°
2026-04-30 11:18 59.81333 30.22574 1472 ft 193 kts 287°
2026-04-30 11:18 59.81668 30.19906 2158 ft 208 kts 283°
2026-04-30 11:19 59.82006 30.17253 3014 ft 185 kts 285°
2026-04-30 11:19 59.82371 30.14801 3331 ft 195 kts 288°
2026-04-30 11:19 59.82825 30.12120 3834 ft 214 kts 289°
2026-04-30 11:19 59.83307 30.09221 4418 ft 230 kts 287°
2026-04-30 11:20 59.83738 30.06149 5220 ft 235 kts 287°
2026-04-30 11:20 59.84156 30.03016 6119 ft 238 kts 283°
2026-04-30 11:20 59.84060 29.99771 6868 ft 249 kts 251°
2026-04-30 11:20 59.83018 29.96988 7640 ft 262 kts 219°
2026-04-30 11:21 59.81342 29.95565 8357 ft 271 kts 197°
2026-04-30 11:21 59.79491 29.94609 9036 ft 277 kts 197°
2026-04-30 11:21 59.77630 29.93606 9685 ft 283 kts 198°
2026-04-30 11:21 59.75713 29.92719 10304 ft 291 kts 185°
2026-04-30 11:22 59.73723 29.93445 10869 ft 294 kts 149°
2026-04-30 11:22 59.72218 29.96072 11311 ft 294 kts 116°
2026-04-30 11:22 59.71491 29.99851 11640 ft 299 kts 96°
2026-04-30 11:22 59.71090 30.03964 11968 ft 315 kts 95°
2026-04-30 11:23 59.70634 30.08303 12300 ft 332 kts 97°
2026-04-30 11:23 59.70093 30.12851 12579 ft 348 kts 96°
2026-04-30 11:23 59.69503 30.22681 13329 ft 369 kts 86°
2026-04-30 11:24 59.69412 30.27745 14000 ft 371 kts 86°
2026-04-30 11:24 59.69235 30.32791 14673 ft 376 kts 89°
2026-04-30 11:24 59.68880 30.37937 15072 ft 381 kts 93°
2026-04-30 11:25 59.67817 30.48280 15178 ft 382 kts 95°
2026-04-30 11:25 59.67267 30.53389 15180 ft 382 kts 95°
2026-04-30 11:25 59.66168 30.63596 15170 ft 381 kts 95°
2026-04-30 11:26 59.65173 30.73892 15169 ft 380 kts 93°
2026-04-30 11:26 59.64750 30.79010 15167 ft 380 kts 93°
2026-04-30 11:26 59.64329 30.84137 15169 ft 380 kts 93°
2026-04-30 11:27 59.63904 30.89272 15171 ft 381 kts 93°
2026-04-30 11:27 59.63472 30.94466 15163 ft 381 kts 93°
2026-04-30 11:27 59.63044 30.99583 15160 ft 380 kts 93°
2026-04-30 11:27 59.62612 31.04720 15162 ft 381 kts 93°
2026-04-30 11:28 59.61736 31.15035 15160 ft 381 kts 93°
2026-04-30 11:28 59.61298 31.20148 15166 ft 381 kts 93°
2026-04-30 11:28 59.60857 31.25271 15164 ft 380 kts 93°
2026-04-30 11:29 59.60410 31.30448 15162 ft 381 kts 93°
2026-04-30 11:29 59.59967 31.35553 15162 ft 380 kts 93°
2026-04-30 11:29 59.59067 31.45845 15159 ft 381 kts 93°
2026-04-30 11:30 59.58165 31.56058 15159 ft 381 kts 93°
2026-04-30 11:30 59.57712 31.61159 15161 ft 380 kts 93°
2026-04-30 11:30 59.57250 31.66327 15158 ft 380 kts 94°
2026-04-30 11:31 59.56794 31.71418 15159 ft 381 kts 94°
2026-04-30 11:31 59.56329 31.76588 15155 ft 380 kts 94°
2026-04-30 11:31 59.55869 31.81676 15160 ft 380 kts 94°
2026-04-30 11:31 59.55409 31.86763 15156 ft 380 kts 94°
2026-04-30 11:32 59.54939 31.91922 15156 ft 380 kts 94°
2026-04-30 11:32 59.54471 31.97030 15260 ft 385 kts 94°
2026-04-30 11:32 59.53992 32.02217 15867 ft 388 kts 94°
2026-04-30 11:33 59.52192 32.12353 17160 ft 408 kts 116°
2026-04-30 11:33 59.50397 32.16707 17727 ft 419 kts 128°
2026-04-30 11:33 59.48339 32.20758 18275 ft 424 kts 130°
2026-04-30 11:33 59.46235 32.24786 18813 ft 428 kts 130°
2026-04-30 11:34 59.44084 32.28901 19346 ft 431 kts 130°
2026-04-30 11:34 59.41954 32.32999 19865 ft 434 kts 129°
2026-04-30 11:34 59.39813 32.37133 20378 ft 437 kts 129°
2026-04-30 11:34 59.37625 32.41365 20868 ft 441 kts 129°
2026-04-30 11:35 59.35450 32.45572 21361 ft 444 kts 129°
2026-04-30 11:35 59.33256 32.49815 21864 ft 446 kts 129°
2026-04-30 11:35 59.31059 32.54055 22330 ft 449 kts 129°
2026-04-30 11:35 59.28816 32.58375 22793 ft 452 kts 129°
2026-04-30 11:36 59.26588 32.62662 23241 ft 455 kts 129°
2026-04-30 11:36 59.24328 32.67003 23669 ft 458 kts 130°
2026-04-30 11:36 59.22060 32.71347 24111 ft 460 kts 130°
2026-04-30 11:36 59.19755 32.75755 24541 ft 462 kts 130°
2026-04-30 11:37 59.17470 32.80113 24913 ft 465 kts 130°
2026-04-30 11:37 59.15168 32.84498 25268 ft 468 kts 130°
2026-04-30 11:37 59.12854 32.88896 25633 ft 471 kts 130°
2026-04-30 11:37 59.10494 32.93373 25992 ft 473 kts 130°
2026-04-30 11:38 59.08155 32.97802 26338 ft 475 kts 130°
2026-04-30 11:38 59.05798 33.02253 26662 ft 477 kts 130°
2026-04-30 11:38 59.03404 33.06770 26981 ft 479 kts 130°
2026-04-30 11:38 59.01031 33.11237 27330 ft 480 kts 130°
2026-04-30 11:39 58.98653 33.15706 27735 ft 479 kts 130°
2026-04-30 11:39 58.96276 33.20155 28145 ft 479 kts 130°
2026-04-30 11:39 58.93874 33.24650 28531 ft 478 kts 130°
2026-04-30 11:39 58.91502 33.29073 28926 ft 478 kts 129°
2026-04-30 11:40 58.89121 33.33501 29290 ft 477 kts 129°
2026-04-30 11:40 58.86733 33.37930 29666 ft 476 kts 129°
2026-04-30 11:40 58.84341 33.42360 30015 ft 475 kts 129°
2026-04-30 11:40 58.81977 33.46733 30347 ft 475 kts 129°
2026-04-30 11:41 58.79578 33.51165 30676 ft 474 kts 129°
2026-04-30 11:41 58.77213 33.55524 30994 ft 474 kts 129°
2026-04-30 11:41 58.74852 33.59870 31251 ft 474 kts 129°